TimeCST,TemperatureF,Dew PointF,Humidity,Sea Level PressureIn,VisibilityMPH,Wind Direction,Wind SpeedMPH,Gust SpeedMPH,PrecipitationIn,Events,Conditions,WindDirDegrees,DateUTC
12:51 AM,64.0,55.0,73,30.10,10.0,South,11.5,-,N/A,,Clear,190,2012-11-23 06:51:00
1:51 AM,62.1,55.0,78,30.12,10.0,SSW,6.9,-,N/A,,Clear,200,2012-11-23 07:51:00
2:51 AM,57.9,54.0,87,30.13,10.0,South,6.9,-,N/A,,Clear,180,2012-11-23 08:51:00
3:51 AM,57.0,53.1,87,30.14,7.0,Calm,Calm,-,N/A,,Clear,0,2012-11-23 09:51:00
4:51 AM,54.0,51.1,90,30.16,7.0,Calm,Calm,-,N/A,,Clear,0,2012-11-23 10:51:00
5:51 AM,55.0,52.0,89,30.17,6.0,Calm,Calm,-,N/A,,Scattered Clouds,0,2012-11-23 11:51:00
6:51 AM,50.0,48.9,96,30.19,4.0,WSW,3.5,-,N/A,,Clear,240,2012-11-23 12:51:00
7:51 AM,55.0,52.0,89,30.23,5.0,NNW,6.9,-,N/A,,Clear,330,2012-11-23 13:51:00
8:51 AM,60.8,53.6,77,30.28,7.0,North,20.7,-,N/A,,Clear,10,2012-11-23 14:51:00
9:11 AM,62.6,51.8,68,30.30,10.0,NNE,19.6,27.6,N/A,,Mostly Cloudy,20,2012-11-23 15:11:00
9:38 AM,66.2,50.0,56,30.31,10.0,North,21.9,31.1,N/A,,Mostly Cloudy,10,2012-11-23 15:38:00
9:51 AM,66.0,48.9,54,30.31,10.0,NNE,19.6,31.1,N/A,,Mostly Cloudy,20,2012-11-23 15:51:00
10:51 AM,64.9,44.1,47,30.33,10.0,North,23.0,32.2,N/A,,Overcast,10,2012-11-23 16:51:00
11:51 AM,64.0,37.0,37,30.34,10.0,NNE,20.7,28.8,N/A,,Overcast,20,2012-11-23 17:51:00
12:51 PM,64.0,33.1,31,30.33,10.0,NNE,17.3,27.6,N/A,,Overcast,20,2012-11-23 18:51:00
1:51 PM,66.0,30.9,27,30.32,10.0,NNE,21.9,26.5,N/A,,Overcast,20,2012-11-23 19:51:00
2:51 PM,66.0,27.0,23,30.33,10.0,NNE,19.6,26.5,N/A,,Overcast,20,2012-11-23 20:51:00
3:51 PM,66.9,23.0,19,30.33,10.0,NNE,17.3,-,N/A,,Overcast,20,2012-11-23 21:51:00
4:51 PM,64.9,21.9,19,30.34,10.0,North,10.4,-,N/A,,Overcast,10,2012-11-23 22:51:00
4:53 PM,64.4,21.2,19,30.35,10.0,North,10.4,-,N/A,,Scattered Clouds,10,2012-11-23 22:53:00
5:51 PM,63.0,26.1,25,30.35,10.0,North,11.5,-,N/A,,Overcast,360,2012-11-23 23:51:00
6:51 PM,62.1,23.0,22,30.38,10.0,North,13.8,21.9,N/A,,Overcast,360,2012-11-24 00:51:00
7:51 PM,59.0,21.0,23,30.40,10.0,North,11.5,-,N/A,,Mostly Cloudy,10,2012-11-24 01:51:00
8:51 PM,57.0,21.9,26,30.40,10.0,North,12.7,29.9,N/A,,Mostly Cloudy,10,2012-11-24 02:51:00
9:51 PM,52.0,23.0,32,30.41,10.0,North,6.9,-,N/A,,Mostly Cloudy,10,2012-11-24 03:51:00
10:51 PM,44.1,23.0,43,30.43,10.0,North,4.6,-,N/A,,Clear,360,2012-11-24 04:51:00
11:51 PM,44.1,23.0,43,30.42,10.0,NNW,5.8,-,N/A,,Clear,340,2012-11-24 05:51:00